Location: Izdebno
(52.6670°N, 16.2170°E)
Time: 03:43:28
(UTC+02:00)

A-11 Canister half - Pass Details

Date: 15 February 2023
Orbit: 1526 x 1682 km, 47.3° (Epoch: 24 March)

Event Time Altitude Azimuth Distance (km) Brightness Sun altitude
Rises 05:39:59 0° 264° (W) 4,685 - -14.5°
Reaches altitude 10° 05:43:03 10° 262° (W) 3,697 - -14.1°
Exits shadow 05:44:35 16° 260° (W) 3,219 10.1 -13.8°
Maximum altitude 05:52:11 64° 184° (S) 1,671 9.2 -12.7°
Drops below altitude 10° 06:01:23 10° 106° (ESE) 3,730 12.5 -11.3°
Sets 06:04:30 0° 103° (ESE) 4,729 13.7 -10.8°
